Погода в Верхнем Студенце

Россия / Липецкая область     52°36′08″N   39°03′18″E
темп.,
°C
ветер,
м/с
пор.,
м/с
влажн.,
%
обл.,
%
осадки,
мм/ч
давл.,
гПа
погр.,
м
17 сентября, пт
пт1700:00+5св12814 0.0 102010
03:00+5всв1184100 0.0 102010
06:00+5всв1185100 0.0 101910
09:00+10в1162100 0.0 1019410
12:00+14юз014699 0.0 10171291
15:00+15зсз2342100 0.0 10161506
18:00+12з3453100 0.0 1017180
21:00+11ссв1361100 0.0 1018148
18 сентября, сб
сб1800:00+9всв4873100 0.4 1018394
03:00+8в4882100 2.2 1019472
06:00+7вюв4983100 1.4 1019500
09:00+8в51072100 1.6 1020627
12:00+8вюв51074100 0.6 1020644
15:00+8вюв4984100 2.1 1020478
18:00+8в51290100 3.3 1019502
21:00+8вюв61389100 5.0 1019582
19 сентября, вс
вс1900:00+8вюв71485100 0.4 1019525
03:00+7в61480100 1.0 1018466
06:00+7в71579100 0.9 1017507
09:00+8в81586100 3.1 1017616
12:00+7вюв81793100 5.1 1015688
15:00+7вюв81692100 8.2 1015860
18:00+7вюв71493100 0.6 1013659
21:00+8в51096100 0.9 1012467
20 сентября, пн
пн2000:00+9всв4798100 0.1 1011255
03:00+10в3699100 0.1 1010233
06:00+10в4799100 0.1 1009226
09:00+11в51097100 0.3 1009360
12:00+12вюв4998100 2.2 1008438
15:00+14ююз248977 4.4 1008426
18:00+13зюз37763 0.3 1009141
21:00+8сз228744 0.3 101013
21 сентября, вт
вт2100:00+9зюз1184100 0.3 101042
03:00+9ююз1193100 1.9 1009100
06:00+9з129098 0.3 101097
09:00+10ююз3477100 0.3 1010508
12:00+9ююз5889100 0.3 1010637
15:00+9юз5783100 0.3 1011998
18:00+7юз5786100 0.1 1012841
21:00+7юз4791100 0.1 1012692